Flag for Denmark Weather past 2 weeks in Aalborg, Denmark

50 °F

Passing clouds.

Feels Like: 45 °F
Forecast: 41 / 54 °F
Wind: 15 mph from Southeast

Location: Aalborg Airport

Current Time: Oct 9, 2015 at 2:23:51 AM

Latest Report: Oct 9, 2015 at 1:50 AM

Visibility: N/A

Pressure: 30.21 "Hg

Humidity: 82%

Dew point: 45 °F

Location of AalborgLocation

Historic Weather in Aalborg — Graph


Aalborg temperature yesterday

Maximum temperature yesterday: 54 °F (at 2:50 AM)
Minimum temperature yesterday: 50 °F (at 6:50 AM)
Average temperature yesterday: 51 °F

Past Weeks' High & Low Weather Summary

High66 °F (Sep 28, 4:50 PM)100% (Sep 24, 1:20 AM)30.74 "Hg (Sep 24, 1:20 AM)
Low39 °F (Sep 28, 3:20 AM)43% (Sep 28, 4:50 PM)29.74 "Hg (Sep 24, 6:50 PM)
Average54 °F84%30.21 "Hg
* Reported Sep 24 1:20 AM — Oct 9 1:20 AM, Aalborg, Weather by CustomWeather, © 2015

Note: Actual official high and low records may vary slightly from our data, if they occured in-between our weather recording intervals... More about our weather records


Aalborg weather history for previous 24 hours

Time TempWeatherWind HumidityBarometerVisibility
1:20 AM
Fri, Oct 9
50 °FPassing clouds.17 mph82%30.21 "HgN/A
12:50 AM50 °FPassing clouds.16 mph82%30.21 "HgN/A
12:20 AM52 °FPassing clouds.15 mph77%30.21 "HgN/A
11:20 PM
Thu, Oct 8
52 °FPassing clouds.15 mph77%30.21 "HgN/A
10:50 PM50 °FPassing clouds.16 mph82%30.21 "HgN/A
10:20 PM50 °FPassing clouds.16 mph82%30.18 "HgN/A
9:50 PM50 °FPassing clouds.16 mph82%30.18 "HgN/A
9:20 PM50 °FPassing clouds.16 mph82%30.18 "HgN/A
8:50 PM50 °FPassing clouds.15 mph82%30.18 "HgN/A
8:20 PM50 °FPartly cloudy.15 mph82%30.18 "HgN/A
7:50 PM50 °FOvercast.18 mph82%30.18 "HgN/A
7:20 PM50 °FOvercast.18 mph82%30.18 "HgN/A
6:50 PM50 °FLight rain. Partly sunny.20 mph82%30.18 "HgN/A
6:20 PM50 °FLight rain. Partly sunny.17 mph88%30.18 "HgN/A
5:50 PM50 °FLight rain. Partly sunny.21 mph82%30.15 "HgN/A
5:20 PM52 °FLight rain. Partly sunny.21 mph77%30.15 "HgN/A
4:50 PM52 °FPartly sunny.20 mph77%30.15 "HgN/A
4:20 PM52 °FLight rain. Partly sunny.21 mph77%30.15 "HgN/A
3:50 PM52 °FPartly sunny.23 mph77%30.15 "HgN/A
3:20 PM52 °FPartly sunny.21 mph77%30.15 "HgN/A
2:50 PM52 °FPartly sunny.21 mph77%30.15 "HgN/A
2:20 PM52 °FPartly sunny.20 mph82%30.15 "HgN/A
1:50 PM52 °FPartly sunny.21 mph82%30.15 "HgN/A
1:20 PM52 °FPartly sunny.21 mph82%30.12 "HgN/A
12:50 PM52 °FPartly sunny.20 mph82%30.12 "HgN/A
12:20 PM52 °FPartly sunny.18 mph82%30.12 "HgN/A
11:50 AM52 °FPartly sunny.18 mph82%30.12 "HgN/A
11:20 AM52 °FPartly sunny.22 mph82%30.12 "HgN/A
10:50 AM52 °FBroken clouds.20 mph82%30.09 "HgN/A
10:20 AM52 °FLight rain. Partly sunny.18 mph82%30.09 "HgN/A
9:50 AM52 °FLight rain. Broken clouds.17 mph82%30.09 "HgN/A
9:20 AM50 °FRain. Partly sunny.17 mph88%30.09 "Hg6 mi
8:50 AM50 °FRain. Partly sunny.18 mph88%30.09 "Hg6 mi
8:20 AM52 °FLight rain. Passing clouds.18 mph82%30.09 "HgN/A
7:50 AM50 °FLight rain. Passing clouds.15 mph88%30.07 "HgN/A
7:20 AM52 °FLight rain. Passing clouds.17 mph82%30.07 "HgN/A
6:50 AM50 °FLight rain. Passing clouds.17 mph88%30.07 "HgN/A
5:20 AM52 °FLight rain. Passing clouds.17 mph82%30.07 "HgN/A
4:50 AM52 °FLight rain. Passing clouds.15 mph77%30.07 "HgN/A
4:20 AM52 °FLight rain. Passing clouds.17 mph77%30.07 "HgN/A
3:50 AM52 °FLight rain. Passing clouds.23 mph77%30.07 "HgN/A
3:20 AM54 °FPassing clouds.21 mph72%30.07 "HgN/A
2:50 AM54 °FPassing clouds.23 mph72%30.07 "HgN/A
2:20 AM52 °FPassing clouds.22 mph77%30.07 "HgN/A
Weather by CustomWeather, © 2015

See weather overviewHow to use our weather pages